Location: Huesca
(42.1318°N, 0.4078°W)
Time: 17:39:19
(UTC+01:00)

Explorer 7 - Pass Details

Date: 24 December 2025
Orbit: 433 x 550 km, 50.2° (Epoch: 17 January)

Event Time Altitude Azimuth Distance (km) Brightness Sun altitude
Rises 18:33:37 0° 303° (WNW) 2,477 10.7 -10.6°
Reaches altitude 10° 18:35:54 10° 311° (NW) 1,584 9.5 -11.0°
Maximum altitude 18:39:15 39° 22° (NNE) 681 7.0 -11.6°
Enters shadow 18:41:21 19° 83° (E) 1,115 7.8 -11.9°
